Weather History for New Orleans Lakefront, LA

Change the Weather History Date:

Sunday, July 22, 2012

  Actual Average Record
Temperature  
Mean Temperature 83 °F 83 °F  
Max Temperature 89 °F 91 °F 99 °F (1981)
Min Temperature 76 °F 75 °F 68 °F (1972)
Degree Days  
Heating Degree Days 0 0  
Month to date heating degree days 0 0  
Since 1 June heating degree days 0 0  
Since 1 July heating degree days 0 0  
Cooling Degree Days 18 18  
Month to date cooling degree days 397 396  
Year to date cooling degree days 1946 1510  
Since 1 June cooling degree days 930 891  
Growing Degree Days 35 (Base 50)    
Moisture  
Dew Point 74 °F    
Average Humidity 76    
Maximum Humidity 88    
Minimum Humidity 63    
Precipitation  
Precipitation 0.00 in 0.18 in 1.92 in (1965)
Month to date precipitation 10.62 4.35  
Year to date precipitation 37.64 36.65  
Snow  
Snow 0.00 in - - ()
Month to date snowfall 0.0  
Since 1 June snowfall 0.0  
Since 1 July snowfall 0.0  
Snow Depth 0.00 in    
Sea Level Pressure  
Sea Level Pressure 30.06 in    
Wind  
Wind Speed 6 mph (SE)    
Max Wind Speed 14 mph    
Max Gust Speed 20 mph    
Visibility 10 miles    
Events      
T = Trace of Precipitation, MM = Missing Value Source: NWS Daily Summary

Daily Weather History Graph

Daily Weather History Graph

Search for Another Location

Airport:

Trip Planner

Search our weather history database for the weather conditions in past years. The results will help you decide how hot, cold, wet, or windy it might be!

Date:

Astronomy

Jul. 22, 2012 Rise Set
Actual Time 6:13 AM CDT 7:59 PM CDT
Civil Twilight 5:46 AM CDT 8:25 PM CDT
Nautical Twilight 5:14 AM CDT 8:57 PM CDT
Astronomical Twilight 4:41 AM CDT 9:31 PM CDT
Moon 9:38 AM CDT (7/22) 10:06 PM CDT (7/22)
Length of Visible Light 14h 39m
Length of Day
13h 46m
Waxing Crescent, 13% of the Moon is Illuminated
Jul 22
Waxing Crescent
Jul 26
First Quarter
Aug 1
Full
Aug 9
Last Quarter
Aug 17
New

Hourly Weather History & Observations

Time (CDT) Temp. Heat Index Dew Point Humidity Pressure Visibility Wind Dir Wind Speed Gust Speed Precip Events Conditions
12:53 AM 80.1 °F 84.5 °F 73.9 °F 81% 30.02 in 10.0 mi SSE 3.5 mph - N/A   Clear
1:53 AM 81.0 °F 86.7 °F 75.0 °F 82% 30.01 in 10.0 mi South 4.6 mph - N/A   Partly Cloudy
2:53 AM 80.1 °F 84.5 °F 73.9 °F 81% 30.00 in 10.0 mi South 3.5 mph - N/A   Clear
3:53 AM 81.0 °F 86.2 °F 73.9 °F 79% 30.01 in 10.0 mi SSE 3.5 mph - N/A   Clear
4:53 AM 81.0 °F 86.2 °F 73.9 °F 79% 30.01 in 10.0 mi SE 3.5 mph - N/A   Clear
5:53 AM 81.0 °F 86.2 °F 73.9 °F 79% 30.03 in 10.0 mi SE 3.5 mph - N/A   Clear
6:53 AM 81.0 °F 86.2 °F 73.9 °F 79% 30.04 in 10.0 mi SE 5.8 mph - N/A   Clear
7:53 AM 82.0 °F 87.9 °F 73.9 °F 76% 30.06 in 10.0 mi SE 5.8 mph - N/A   Clear
8:53 AM 84.0 °F 91.2 °F 73.9 °F 72% 30.07 in 10.0 mi SE 9.2 mph - N/A   Clear
9:53 AM 86.0 °F 95.1 °F 75.0 °F 70% 30.09 in 10.0 mi SE 10.4 mph - N/A   Clear
10:53 AM 87.1 °F 95.4 °F 73.9 °F 65% 30.09 in 10.0 mi South 9.2 mph - N/A   Partly Cloudy
11:37 AM 87.8 °F 95.6 °F 73.4 °F 62% 30.11 in 10.0 mi SSE 8.1 mph - N/A   Mostly Cloudy
11:53 AM 88.0 °F 95.6 °F 73.0 °F 61% 30.10 in 10.0 mi South 9.2 mph - N/A   Scattered Clouds
12:53 PM 89.1 °F 97.0 °F 73.0 °F 59% 30.08 in 10.0 mi SSE 5.8 mph - N/A   Scattered Clouds
1:53 PM 90.0 °F 97.9 °F 73.0 °F 57% 30.07 in 10.0 mi SSE 10.4 mph - N/A   Scattered Clouds
2:53 PM 89.1 °F 98.0 °F 73.9 °F 61% 30.06 in 10.0 mi SE 9.2 mph - N/A   Clear
3:53 PM 89.1 °F 96.0 °F 72.0 °F 57% 30.07 in 10.0 mi SE 10.4 mph - N/A   Clear
4:53 PM 90.0 °F 96.9 °F 72.0 °F 55% 30.07 in 10.0 mi SSE 9.2 mph - N/A   Clear
5:53 PM 86.0 °F 93.0 °F 73.0 °F 65% 30.07 in 10.0 mi ESE 17.3 mph 23.0 mph N/A   Partly Cloudy
6:53 PM 86.0 °F 93.0 °F 73.0 °F 65% 30.07 in 10.0 mi ESE 9.2 mph - N/A   Clear
7:53 PM 84.9 °F 91.4 °F 73.0 °F 67% 30.09 in 10.0 mi SE 9.2 mph - N/A   Clear
8:53 PM 84.9 °F 92.1 °F 73.9 °F 69% 30.09 in 10.0 mi SE 6.9 mph - N/A   Clear
9:53 PM 82.9 °F 90.2 °F 75.0 °F 77% 30.09 in 10.0 mi SE 4.6 mph - N/A   Clear
10:53 PM 82.9 °F 89.4 °F 73.9 °F 74% 30.10 in 10.0 mi SE 5.8 mph - N/A   Clear
11:53 PM 82.9 °F 90.2 °F 75.0 °F 77% 30.11 in 10.0 mi ESE 4.6 mph - N/A   Clear